Weather History for Mineral Point, WI

Change the Weather History Date:

Sunday, February 3, 2013

  Actual Average (KLNR) Record (KLNR)
Temperature  
Mean Temperature 16 °F -  
Max Temperature 19 °F 29 °F 42 °F (1999)
Min Temperature 12 °F 13 °F -24 °F (2014)
Degree Days  
Heating Degree Days 50    
Moisture  
Dew Point 10 °F    
Average Humidity 76    
Maximum Humidity 93    
Minimum Humidity 58    
Precipitation  
Precipitation 0.01 in - - ()
Sea Level Pressure  
Sea Level Pressure 29.95 in    
Wind  
Wind Speed 6 mph (West)    
Max Wind Speed 17 mph    
Max Gust Speed 23 mph    
Visibility 7 miles    
Events Snow    
Averages and records for this station are not official NWS values.
T = Trace of Precipitation, MM = Missing Value Source: NWS Daily Summary

Daily Weather History Graph

Daily Weather History Graph

Search for Another Location

Airport:

Trip Planner

Search our weather history database for the weather conditions in past years. The results will help you decide how hot, cold, wet, or windy it might be!

Date:

Astronomy

Feb. 03, 2013 Rise Set
Actual Time 7:13 AM CST 5:16 PM CST
Civil Twilight 6:43 AM CST 5:46 PM CST
Nautical Twilight 6:09 AM CST 6:20 PM CST
Astronomical Twilight 5:36 AM CST 6:53 PM CST
Moon 12:41 AM CST (2/3) 10:53 AM CST (2/3)
Length of Visible Light 11h 03m
Length of Day
10h 03m
Waning Gibbous, 48% of the Moon is Illuminated
Feb 3
Waning Gibbous
Feb 10
New
Feb 17
First Quarter
Feb 25
Full
Mar 4
Last Quarter

Hourly Weather History & Observations

Time (CST) Temp. Windchill Dew Point Humidity Pressure Visibility Wind Dir Wind Speed Gust Speed Precip Events Conditions
12:15 AM 12.2 °F 6.1 °F 8.6 °F 85% 29.94 in 5.0 mi South 3.5 mph - N/A Snow Light Snow
12:35 AM 12.2 °F 6.1 °F 8.6 °F 85% 29.94 in 5.0 mi South 3.5 mph - N/A Snow Light Snow
12:55 AM 12.2 °F 6.1 °F 8.6 °F 85% 29.94 in 3.0 mi SSW 3.5 mph - N/A Snow Light Snow
1:15 AM 12.2 °F - 8.6 °F 85% 29.93 in 3.0 mi Calm Calm - N/A Snow Light Snow
1:35 AM 12.2 °F 6.1 °F 8.6 °F 85% 29.92 in 5.0 mi SSW 3.5 mph - N/A Snow Light Snow
1:55 AM 12.2 °F 6.1 °F 8.6 °F 85% 29.92 in 5.0 mi SSW 3.5 mph - N/A Snow Light Snow
2:15 AM 12.2 °F - 8.6 °F 85% 29.92 in 7.0 mi Calm Calm - N/A Snow Light Snow
2:35 AM 12.2 °F - 8.6 °F 85% 29.91 in 7.0 mi Calm Calm - N/A Snow Light Snow
2:55 AM 12.2 °F - 8.6 °F 85% 29.90 in 10.0 mi Calm Calm - N/A Snow Light Snow
3:15 AM 14.0 °F - 10.4 °F 86% 29.89 in 7.0 mi Calm Calm - N/A Snow Light Snow
3:35 AM 14.0 °F - 10.4 °F 86% 29.89 in 10.0 mi Calm Calm - N/A   Overcast
4:15 AM 14.0 °F - 10.4 °F 86% 29.90 in 3.0 mi Calm Calm - N/A Snow Light Snow
4:35 AM 14.0 °F 8.2 °F 10.4 °F 86% 29.91 in 3.0 mi WSW 3.5 mph - N/A Snow Light Snow
4:55 AM 14.0 °F 5.1 °F 12.2 °F 93% 29.92 in 2.5 mi WSW 5.8 mph - N/A Snow Light Snow
5:15 AM 14.0 °F 5.1 °F 12.2 °F 93% 29.91 in 2.0 mi West 5.8 mph - N/A Snow Light Snow
5:35 AM 14.0 °F 2.9 °F 12.2 °F 93% 29.91 in 2.5 mi West 8.1 mph - N/A Snow Light Snow
5:55 AM 14.0 °F 2.9 °F 12.2 °F 93% 29.91 in 4.0 mi West 8.1 mph - N/A Snow Light Snow
6:15 AM 14.0 °F 2.9 °F 12.2 °F 93% 29.92 in 5.0 mi West 8.1 mph - N/A Snow Light Snow
6:35 AM 15.8 °F 5.1 °F 12.2 °F 86% 29.92 in 7.0 mi WNW 8.1 mph - N/A Snow Light Snow
6:55 AM 15.8 °F 3.4 °F 12.2 °F 86% 29.93 in 7.0 mi WNW 10.4 mph - N/A Snow Light Snow
7:15 AM 15.8 °F 2.7 °F 12.2 °F 86% 29.94 in 5.0 mi NW 11.5 mph 17.3 mph N/A Snow Light Snow
7:55 AM 15.8 °F 4.2 °F 12.2 °F 86% 29.95 in 7.0 mi WNW 9.2 mph - N/A Snow Light Snow
8:15 AM 15.8 °F 5.1 °F 10.4 °F 79% 29.96 in 7.0 mi WNW 8.1 mph - N/A Snow Light Snow
8:35 AM 15.8 °F 5.1 °F 10.4 °F 79% 29.96 in 10.0 mi NW 8.1 mph - N/A Snow Light Snow
8:55 AM 15.8 °F 4.2 °F 10.4 °F 79% 29.97 in 10.0 mi WNW 9.2 mph - N/A Snow Light Snow
9:15 AM 17.6 °F 6.4 °F 8.6 °F 68% 29.97 in 10.0 mi WNW 9.2 mph - N/A   Scattered Clouds
9:35 AM 17.6 °F 4.3 °F 8.6 °F 68% 29.97 in 10.0 mi West 12.7 mph - N/A   Mostly Cloudy
9:55 AM 17.6 °F 4.3 °F 8.6 °F 68% 29.97 in 7.0 mi West 12.7 mph 16.1 mph N/A Snow Light Snow
10:15 AM 17.6 °F 3.7 °F 8.6 °F 68% 29.99 in 2.5 mi West 13.8 mph 17.3 mph N/A Snow Light Snow
10:35 AM 15.8 °F 0.3 °F 6.8 °F 68% 30.00 in 0.5 mi West 16.1 mph 19.6 mph N/A Snow Light Snow
10:55 AM 17.6 °F 3.7 °F 6.8 °F 63% 30.00 in 0.2 mi West 13.8 mph 23.0 mph N/A Snow Snow
11:15 AM 17.6 °F 5.7 °F 6.8 °F 63% 29.99 in 10.0 mi WNW 10.4 mph 17.3 mph N/A   Clear
11:35 AM 17.6 °F 5.7 °F 6.8 °F 63% 29.98 in 10.0 mi West 10.4 mph - N/A   Clear
11:55 AM 17.6 °F 4.3 °F 6.8 °F 63% 30.00 in 1.2 mi West 12.7 mph - N/A Snow Light Snow
12:15 PM 17.6 °F 4.3 °F 6.8 °F 63% 29.99 in 4.0 mi West 12.7 mph - N/A Snow Light Snow
12:35 PM 19.4 °F 7.2 °F 6.8 °F 58% 29.99 in 10.0 mi WSW 11.5 mph - N/A   Clear
12:55 PM 19.4 °F 4.5 °F 8.6 °F 63% 29.99 in 5.0 mi West 17.3 mph - N/A   Haze
1:15 PM 19.4 °F 6.0 °F 8.6 °F 63% 29.98 in 10.0 mi West 13.8 mph - N/A   Scattered Clouds
1:35 PM 17.6 °F 3.7 °F 8.6 °F 68% 29.98 in 10.0 mi WSW 13.8 mph 21.9 mph N/A   Overcast
1:55 PM 17.6 °F 2.7 °F 8.6 °F 68% 29.97 in 10.0 mi WSW 16.1 mph - N/A   Overcast
2:15 PM 17.6 °F 3.7 °F 8.6 °F 68% 29.98 in 10.0 mi West 13.8 mph - N/A   Overcast
2:35 PM 19.4 °F 6.6 °F 8.6 °F 63% 29.97 in 10.0 mi WSW 12.7 mph 17.3 mph N/A   Overcast
2:55 PM 19.4 °F 5.5 °F 8.6 °F 63% 29.97 in 10.0 mi West 15.0 mph 19.6 mph N/A   Mostly Cloudy
3:15 PM 19.4 °F 6.6 °F 8.6 °F 63% 29.97 in 10.0 mi West 12.7 mph - N/A   Scattered Clouds
3:35 PM 19.4 °F 7.9 °F 8.6 °F 63% 29.97 in 10.0 mi West 10.4 mph - N/A   Scattered Clouds
3:55 PM 19.4 °F 7.9 °F 8.6 °F 63% 29.97 in 10.0 mi West 10.4 mph - N/A   Overcast
4:15 PM 19.4 °F 7.9 °F 8.6 °F 63% 29.97 in 10.0 mi West 10.4 mph - N/A   Overcast
4:35 PM 19.4 °F 7.2 °F 8.6 °F 63% 29.96 in 10.0 mi West 11.5 mph - N/A   Overcast
4:55 PM 19.4 °F 8.6 °F 8.6 °F 63% 29.96 in 10.0 mi West 9.2 mph - N/A   Overcast
5:15 PM 19.4 °F 8.6 °F 10.4 °F 68% 29.96 in 10.0 mi West 9.2 mph - N/A Snow Light Snow
5:35 PM 19.4 °F 9.5 °F 10.4 °F 68% 29.96 in 10.0 mi West 8.1 mph - N/A Snow Light Snow
5:55 PM 19.4 °F 12.8 °F 10.4 °F 68% 29.96 in 10.0 mi West 4.6 mph - N/A Snow Light Snow
6:15 PM 19.4 °F 12.8 °F 10.4 °F 68% 29.97 in 10.0 mi WSW 4.6 mph - N/A   Overcast
6:35 PM 19.4 °F 11.5 °F 10.4 °F 68% 29.97 in 10.0 mi West 5.8 mph - N/A   Overcast
6:55 PM 19.4 °F 12.8 °F 10.4 °F 68% 29.97 in 10.0 mi West 4.6 mph - N/A   Overcast
7:15 PM 17.6 °F 12.3 °F 10.4 °F 73% 29.97 in 10.0 mi West 3.5 mph - N/A   Scattered Clouds
7:35 PM 19.4 °F 12.8 °F 10.4 °F 68% 29.97 in 10.0 mi WSW 4.6 mph - N/A   Scattered Clouds
7:55 PM 19.4 °F 12.8 °F 10.4 °F 68% 29.97 in 10.0 mi WSW 4.6 mph - N/A   Overcast
8:15 PM 19.4 °F 12.8 °F 12.2 °F 74% 29.97 in 10.0 mi WSW 4.6 mph - N/A   Overcast
8:35 PM 19.4 °F 14.3 °F 12.2 °F 74% 29.97 in 3.0 mi WSW 3.5 mph - N/A Snow Light Snow
8:55 PM 19.4 °F 12.8 °F 14.0 °F 80% 29.98 in 2.0 mi WSW 4.6 mph - N/A Snow Light Snow
9:15 PM 19.4 °F 12.8 °F 14.0 °F 80% 29.98 in 1.8 mi SW 4.6 mph - N/A Snow Light Snow
9:55 PM 19.4 °F 14.3 °F 14.0 °F 80% 29.97 in 1.8 mi South 3.5 mph - N/A Snow Light Snow
10:15 PM 19.4 °F - 15.8 °F 86% 29.96 in 2.5 mi Calm Calm - N/A Snow Light Snow
10:35 PM 19.4 °F - 15.8 °F 86% 29.96 in 3.0 mi Calm Calm - N/A Snow Light Snow
10:55 PM 19.4 °F 14.3 °F 15.8 °F 86% 29.95 in 3.0 mi ESE 3.5 mph - N/A Snow Light Snow
11:15 PM 19.4 °F 14.3 °F 15.8 °F 86% 29.94 in 2.5 mi ESE 3.5 mph - N/A Snow Light Snow
11:35 PM 19.4 °F 14.3 °F 15.8 °F 86% 29.93 in 2.5 mi ESE 3.5 mph - 0.01 in Snow Light Snow
11:55 PM 19.4 °F 14.3 °F 15.8 °F 86% 29.92 in 2.0 mi ESE 3.5 mph - 0.01 in Snow Light Snow